Marrakesh, Morocco

4:21 PM WET on February 12, 2016 (GMT +0000)
Menara | | Change Station
CLOSE
Current Station
Airport
Location: Marrakech,
Elevation: 1529 ft
Nearby Weather Stations

Elev 1529 ft 31.61 °N, 8.04 °W | Updated 21 minutes ago

Clear
Clear
73 °F
Feels Like 73 °F
N
8
Wind Variable Wind from North

Today
High -- | Low -- °F
--% Chance of Precip.
Yesterday
High -- | Low -- °F
Precip. -- in
Pressure 30.21 in
Visibility -9999.0 miles
Clouds
Dew Point 50 °F
Humidity 44%
Rainfall 0.00 in
Snow Depth Not available.
7:17 AM 6:15 PM
Waxing Crescent, 21% visible
METAR GMMX 121600Z 35007KT 310V010 CAVOK 23/10 Q1023 NOSIG
Pressure 30.21 in
Visibility -9999.0 miles
Clouds
Dew Point 50 °F
Humidity 44%
Rainfall 0.00 in
Snow Depth Not available.
7:17 AM 6:15 PM
Waxing Crescent, 21% visible
METAR GMMX 121600Z 35007KT 310V010 CAVOK 23/10 Q1023 NOSIG

10-Day Weather Forecast

No radar image for this location.
×

Almanac

Astronomy

Feb. 12, 2016 Rise Set
Actual Time
Civil Twilight
Nautical Twilight
Astronomical Twilight
Moon
Length of Visible Light
Length of Day
Tomorrow will be .
, % of the Moon is Illuminated

Today's Extremes

Country Highs Country Lows

Community

WunderPhotos

Upload Photos

1,892,350 photos uploaded!

WunderBlog® & News

Nearby

Air Quality

  Air Quality AQ Index Pollutant
Not available.

Snow Depth

Station Depth Elevation

Earthquake Activity

City Distance Mag. Time & Date
Minimum magnitude displayed is 2.5.

Coastal Water Temperatures

Place Temperature

Stations

Nearby Weather Stations

Station Location Temp. Windchill Dew Point Humidity Wind Precip. Elev Updated Type